KLM99D EHAM-LIML

Flight info

Callsign KLM99D
Flight time 1h 18m
Altitude 37000
Route EDUPO Z739 MISGO DCT ASBON DCT TUSUK DCT KRH DCT NATOR DCT TRA DCT RIPUS DCT GERSA DCT SOSON DCT ODINA
Aircraft B738/M-SDE2E3FGHIRWXY/LB1

Departure

Time 2026-05-07 12:17
Airport Amsterdam Airport Schiphol (EHAM)

Arrival

Time 2026-05-07 13:35
Airport Milano Linate Airport (LIML)
Time Latitude Longitude Altitude Speed Heading
2026-05-07 11:47 52.31002 4.77240 -2 ft 0 kts 183°
2026-05-07 12:01 52.31021 4.77241 -2 ft 3 kts 183°
2026-05-07 12:01 52.31040 4.77243 -2 ft 3 kts 183°
2026-05-07 12:02 52.31059 4.77242 -2 ft 3 kts 157°
2026-05-07 12:02 52.31074 4.77223 -2 ft 3 kts 118°
2026-05-07 12:02 52.31079 4.77193 -2 ft 3 kts 94°
2026-05-07 12:02 52.31079 4.77189 -2 ft 0 kts 94°
2026-05-07 12:07 52.31078 4.77219 -2 ft 6 kts 95°
2026-05-07 12:07 52.31072 4.77322 -2 ft 12 kts 94°
2026-05-07 12:08 52.31058 4.77458 -2 ft 12 kts 115°
2026-05-07 12:08 52.31035 4.77584 -2 ft 12 kts 71°
2026-05-07 12:08 52.31107 4.77629 -2 ft 12 kts
2026-05-07 12:08 52.31187 4.77638 -2 ft 11 kts
2026-05-07 12:09 52.31265 4.77644 -2 ft 12 kts
2026-05-07 12:09 52.31357 4.77652 -2 ft 15 kts
2026-05-07 12:09 52.31465 4.77624 -2 ft 18 kts 333°
2026-05-07 12:09 52.31558 4.77473 -2 ft 20 kts 298°
2026-05-07 12:10 52.31573 4.77233 -2 ft 23 kts 265°
2026-05-07 12:10 52.31564 4.76964 -2 ft 25 kts 267°
2026-05-07 12:10 52.31554 4.76675 -2 ft 26 kts 266°
2026-05-07 12:10 52.31544 4.76379 -2 ft 25 kts 266°
2026-05-07 12:11 52.31534 4.76102 -2 ft 24 kts 265°
2026-05-07 12:11 52.31525 4.75841 -2 ft 23 kts 267°
2026-05-07 12:11 52.31517 4.75589 -2 ft 22 kts 267°
2026-05-07 12:11 52.31507 4.75344 -2 ft 21 kts 266°
2026-05-07 12:12 52.31506 4.75283 -2 ft 0 kts 252°
2026-05-07 12:12 52.31505 4.75268 -2 ft 6 kts 264°
2026-05-07 12:12 52.31501 4.75161 -2 ft 11 kts 265°
2026-05-07 12:12 52.31498 4.75044 -2 ft 10 kts 268°
2026-05-07 12:13 52.31494 4.74925 -2 ft 12 kts 268°
2026-05-07 12:13 52.31487 4.74760 -2 ft 17 kts 267°
2026-05-07 12:13 52.31480 4.74535 -2 ft 22 kts 266°
2026-05-07 12:13 52.31467 4.74262 -2 ft 25 kts 257°
2026-05-07 12:14 52.31336 4.74133 -2 ft 23 kts 185°
2026-05-07 12:14 52.31179 4.74118 -2 ft 22 kts 182°
2026-05-07 12:14 52.31026 4.74105 -2 ft 22 kts 183°
2026-05-07 12:14 52.30877 4.74091 -2 ft 21 kts 183°
2026-05-07 12:15 52.30744 4.74078 -2 ft 18 kts 183°
2026-05-07 12:15 52.30619 4.74071 -2 ft 18 kts 183°
2026-05-07 12:15 52.30498 4.74059 -2 ft 17 kts 184°
2026-05-07 12:15 52.30382 4.74042 -2 ft 16 kts 193°
2026-05-07 12:16 52.30278 4.73975 -2 ft 16 kts 205°
2026-05-07 12:16 52.30195 4.73865 -3 ft 15 kts 239°
2026-05-07 12:16 52.30236 4.73743 -4 ft 16 kts 356°
2026-05-07 12:16 52.30509 4.73766 -4 ft 69 kts
2026-05-07 12:17 52.31188 4.73829 -3 ft 124 kts
2026-05-07 12:17 52.32180 4.73945 113 ft 154 kts
2026-05-07 12:17 52.33262 4.74053 576 ft 159 kts
2026-05-07 12:17 52.34355 4.74387 1105 ft 163 kts 25°
2026-05-07 12:18 52.35405 4.75210 1473 ft 184 kts 23°
2026-05-07 12:18 52.36639 4.76089 1718 ft 205 kts 23°
2026-05-07 12:18 52.37981 4.77153 1899 ft 223 kts 35°
2026-05-07 12:18 52.39143 4.79024 2079 ft 246 kts 47°
2026-05-07 12:19 52.40338 4.81114 2673 ft 253 kts 46°
2026-05-07 12:19 52.41541 4.83196 3462 ft 253 kts 50°
2026-05-07 12:19 52.42310 4.85788 4088 ft 259 kts 78°
2026-05-07 12:19 52.42456 4.88753 4741 ft 264 kts 89°
2026-05-07 12:20 52.42453 4.91785 5360 ft 268 kts 90°
2026-05-07 12:20 52.42440 4.94854 6058 ft 270 kts 91°
2026-05-07 12:20 52.42198 4.97901 6703 ft 274 kts 112°
2026-05-07 12:20 52.41106 5.00436 7346 ft 275 kts 139°
2026-05-07 12:21 52.39573 5.02310 8047 ft 276 kts 146°
2026-05-07 12:21 52.37974 5.04099 8733 ft 280 kts 146°
2026-05-07 12:21 52.36363 5.05917 9458 ft 282 kts 146°
2026-05-07 12:21 52.34744 5.07765 10172 ft 285 kts 146°
2026-05-07 12:22 52.33103 5.09734 10490 ft 304 kts 139°
2026-05-07 12:22 52.31583 5.12308 10670 ft 326 kts 131°
2026-05-07 12:22 52.30066 5.15215 10832 ft 346 kts 131°
2026-05-07 12:22 52.28458 5.18284 10996 ft 365 kts 131°
2026-05-07 12:23 52.26757 5.21436 11389 ft 374 kts 132°
2026-05-07 12:23 52.25011 5.24617 11982 ft 378 kts 133°
2026-05-07 12:23 52.23303 5.27901 12626 ft 381 kts 128°
2026-05-07 12:23 52.21742 5.31423 13268 ft 385 kts 125°
2026-05-07 12:24 52.20238 5.35003 13846 ft 390 kts 124°
2026-05-07 12:24 52.18703 5.38670 14489 ft 392 kts 125°
2026-05-07 12:24 52.17145 5.42348 15092 ft 396 kts 125°
2026-05-07 12:24 52.15560 5.46039 15717 ft 400 kts 126°
2026-05-07 12:25 52.13946 5.49758 16246 ft 405 kts 126°
2026-05-07 12:25 52.12309 5.53509 16851 ft 408 kts 126°
2026-05-07 12:25 52.10655 5.57286 17447 ft 412 kts 126°
2026-05-07 12:25 52.08988 5.61090 18039 ft 415 kts 126°
2026-05-07 12:26 52.07302 5.64929 18568 ft 418 kts 126°
2026-05-07 12:26 52.05589 5.68763 19103 ft 420 kts 128°
2026-05-07 12:26 52.03707 5.72409 19609 ft 423 kts 132°
2026-05-07 12:26 52.01734 5.75974 20111 ft 425 kts 133°
2026-05-07 12:27 51.99759 5.79570 20598 ft 428 kts 132°
2026-05-07 12:27 51.97791 5.83218 21074 ft 431 kts 132°
2026-05-07 12:27 51.95818 5.86905 21572 ft 434 kts 131°
2026-05-07 12:27 51.93835 5.90605 22042 ft 436 kts 132°
2026-05-07 12:28 51.91838 5.94324 22510 ft 439 kts 132°
2026-05-07 12:28 51.89825 5.98065 22960 ft 441 kts 132°
2026-05-07 12:28 51.87802 6.01820 23381 ft 444 kts 132°
2026-05-07 12:28 51.85762 6.05596 23764 ft 447 kts 132°
2026-05-07 12:29 51.83706 6.09383 24119 ft 449 kts 132°
2026-05-07 12:29 51.81634 6.13171 24487 ft 451 kts 133°
2026-05-07 12:29 51.79553 6.16973 24833 ft 453 kts 133°
2026-05-07 12:29 51.77459 6.20792 25165 ft 455 kts 133°
2026-05-07 12:30 51.75354 6.24633 25489 ft 457 kts 133°
2026-05-07 12:30 51.73244 6.28485 25810 ft 459 kts 133°
2026-05-07 12:30 51.71126 6.32351 26119 ft 462 kts 133°
2026-05-07 12:30 51.68989 6.36246 26384 ft 465 kts 133°
2026-05-07 12:31 51.66842 6.40155 26681 ft 467 kts 133°
2026-05-07 12:31 51.64684 6.44074 26984 ft 468 kts 133°
2026-05-07 12:31 51.62518 6.48001 27267 ft 470 kts 133°
2026-05-07 12:31 51.60339 6.51944 27492 ft 473 kts 132°
2026-05-07 12:32 51.58146 6.55907 27874 ft 473 kts 132°
2026-05-07 12:32 51.55965 6.59843 28320 ft 471 kts 133°
2026-05-07 12:32 51.53790 6.63765 28727 ft 470 kts 132°
2026-05-07 12:32 51.51614 6.67682 29106 ft 470 kts 133°
2026-05-07 12:33 51.47260 6.75503 29958 ft 467 kts 132°
2026-05-07 12:33 51.45109 6.79361 30407 ft 464 kts 132°
2026-05-07 12:33 51.42952 6.83219 30665 ft 465 kts 132°
2026-05-07 12:34 51.40723 6.86987 30886 ft 466 kts 138°
2026-05-07 12:34 51.38184 6.90192 31152 ft 465 kts 148°
2026-05-07 12:34 51.35439 6.92952 31370 ft 467 kts 149°
2026-05-07 12:34 51.32663 6.95668 31619 ft 468 kts 149°
2026-05-07 12:35 51.30826 6.97460 31828 ft 467 kts 149°
2026-05-07 12:35 51.28055 7.00176 32176 ft 466 kts 149°
2026-05-07 12:35 51.24409 7.03783 32585 ft 465 kts 149°
2026-05-07 12:35 51.21668 7.06513 32915 ft 464 kts 148°
2026-05-07 12:36 51.19820 7.08358 33138 ft 464 kts 149°
2026-05-07 12:36 51.16196 7.11978 33452 ft 465 kts 148°
2026-05-07 12:36 51.14345 7.13826 33663 ft 464 kts 149°
2026-05-07 12:36 51.11602 7.16560 33837 ft 467 kts 149°
2026-05-07 12:37 51.08845 7.19304 34034 ft 468 kts 148°
2026-05-07 12:37 51.06092 7.22040 34328 ft 466 kts 149°
2026-05-07 12:37 51.03397 7.24713 34600 ft 464 kts 149°
2026-05-07 12:37 51.00658 7.27426 34815 ft 464 kts 149°
2026-05-07 12:38 50.97913 7.30141 35041 ft 464 kts 149°
2026-05-07 12:38 50.95180 7.32841 35321 ft 462 kts 149°
2026-05-07 12:38 50.92489 7.35495 35544 ft 462 kts 149°
2026-05-07 12:38 50.89725 7.38218 35731 ft 462 kts 149°
2026-05-07 12:39 50.86990 7.40907 35913 ft 463 kts 149°
2026-05-07 12:39 50.84290 7.43559 36130 ft 462 kts 149°
2026-05-07 12:39 50.81524 7.46272 36326 ft 462 kts 149°
2026-05-07 12:39 50.78789 7.48953 36525 ft 462 kts 149°
2026-05-07 12:40 50.76064 7.51620 36745 ft 461 kts 149°
2026-05-07 12:40 50.73374 7.54248 36943 ft 461 kts 149°
2026-05-07 12:40 50.67913 7.59743 37026 ft 464 kts 148°
2026-05-07 12:41 50.62540 7.65356 37030 ft 462 kts 148°
2026-05-07 12:41 50.57223 7.70894 37033 ft 460 kts 148°
2026-05-07 12:42 50.51883 7.76406 37032 ft 459 kts 148°
2026-05-07 12:42 50.46544 7.81888 37044 ft 458 kts 148°
2026-05-07 12:43 50.41208 7.87351 37051 ft 458 kts 148°
2026-05-07 12:43 50.35859 7.92815 37025 ft 459 kts 148°
2026-05-07 12:44 50.30505 7.98270 37043 ft 460 kts 148°
2026-05-07 12:44 50.25131 8.03730 37035 ft 461 kts 148°
2026-05-07 12:45 50.19743 8.09192 37037 ft 462 kts 148°
2026-05-07 12:45 50.14281 8.14495 37021 ft 462 kts 155°
2026-05-07 12:46 50.08228 8.17678 37045 ft 459 kts 168°
2026-05-07 12:46 50.02002 8.19956 37038 ft 460 kts 168°
2026-05-07 12:47 49.95762 8.22259 37030 ft 461 kts 168°
2026-05-07 12:47 49.89527 8.24616 37023 ft 461 kts 168°
2026-05-07 12:48 49.83294 8.26991 37025 ft 461 kts 168°
2026-05-07 12:48 49.77056 8.29365 37017 ft 461 kts 168°
2026-05-07 12:49 49.70821 8.31730 37022 ft 461 kts 168°
2026-05-07 12:49 49.64598 8.34082 37023 ft 460 kts 168°
2026-05-07 12:50 49.58384 8.36425 37022 ft 460 kts 168°
2026-05-07 12:50 49.52173 8.38760 37023 ft 459 kts 168°
2026-05-07 12:51 49.45970 8.41087 37024 ft 459 kts 168°
2026-05-07 12:51 49.39767 8.43407 37013 ft 458 kts 168°
2026-05-07 12:52 49.33574 8.45717 37043 ft 458 kts 168°
2026-05-07 12:52 49.27383 8.48021 37039 ft 458 kts 168°
2026-05-07 12:53 49.21229 8.50305 37028 ft 458 kts 168°
2026-05-07 12:53 49.14997 8.52613 37024 ft 458 kts 168°
2026-05-07 12:54 49.08793 8.54905 37021 ft 459 kts 168°
2026-05-07 12:54 49.02585 8.57161 37019 ft 458 kts 172°
2026-05-07 12:55 48.96274 8.57497 37013 ft 453 kts 189°
2026-05-07 12:55 48.90126 8.55573 37019 ft 451 kts 194°
2026-05-07 12:56 48.84041 8.53505 37025 ft 452 kts 194°
2026-05-07 12:56 48.77890 8.51476 37021 ft 452 kts 194°
2026-05-07 12:57 48.71731 8.49488 37018 ft 452 kts 194°
2026-05-07 12:57 48.65569 8.47514 37027 ft 453 kts 194°
2026-05-07 12:58 48.59403 8.45543 37019 ft 453 kts 194°
2026-05-07 12:58 48.53235 8.43574 37026 ft 453 kts 194°
2026-05-07 12:59 48.47073 8.41611 37028 ft 453 kts 194°
2026-05-07 12:59 48.40913 8.39654 37030 ft 452 kts 194°
2026-05-07 13:00 48.34750 8.37701 37032 ft 452 kts 194°
2026-05-07 13:00 48.28597 8.35755 37032 ft 452 kts 194°
2026-05-07 13:01 48.22481 8.33826 37039 ft 451 kts 194°
2026-05-07 13:01 48.16217 8.32518 37036 ft 454 kts 182°
2026-05-07 13:02 48.09962 8.33638 37042 ft 457 kts 173°
2026-05-07 13:02 48.03692 8.35278 37035 ft 457 kts 173°
2026-05-07 13:03 47.97412 8.36859 37039 ft 457 kts 173°
2026-05-07 13:03 47.91133 8.38383 37013 ft 457 kts 174°
2026-05-07 13:04 47.84849 8.39894 37025 ft 457 kts 174°
2026-05-07 13:04 47.78568 8.41404 37031 ft 458 kts 174°
2026-05-07 13:05 47.72278 8.42914 37026 ft 458 kts 174°
2026-05-07 13:05 47.65973 8.44274 37038 ft 457 kts 177°
2026-05-07 13:06 47.59651 8.45172 37042 ft 456 kts 178°
2026-05-07 13:06 47.53324 8.46025 37044 ft 457 kts 178°
2026-05-07 13:07 47.46999 8.46930 37040 ft 457 kts 178°
2026-05-07 13:07 47.40677 8.47857 37049 ft 456 kts 178°
2026-05-07 13:08 47.34357 8.48783 37048 ft 457 kts 178°
2026-05-07 13:08 47.28026 8.49705 37048 ft 457 kts 178°
2026-05-07 13:09 47.21693 8.50625 37041 ft 457 kts 178°
2026-05-07 13:09 47.15359 8.51543 37039 ft 457 kts 178°
2026-05-07 13:10 47.09024 8.52460 37033 ft 458 kts 178°
2026-05-07 13:10 47.02683 8.53375 37008 ft 457 kts 178°
2026-05-07 13:11 46.96366 8.54287 37013 ft 456 kts 178°
2026-05-07 13:11 46.90044 8.55198 37011 ft 457 kts 178°
2026-05-07 13:12 46.83722 8.56106 36927 ft 455 kts 178°
2026-05-07 13:12 46.80592 8.56558 37050 ft 449 kts 178°
2026-05-07 13:12 46.77522 8.57002 36977 ft 436 kts 178°
2026-05-07 13:13 46.74536 8.57434 36650 ft 430 kts 179°
2026-05-07 13:13 46.71526 8.57859 35744 ft 439 kts 179°
2026-05-07 13:13 46.68458 8.58292 34838 ft 447 kts 179°
2026-05-07 13:13 46.65342 8.58738 33965 ft 453 kts 179°
2026-05-07 13:14 46.62178 8.59183 32978 ft 459 kts 179°
2026-05-07 13:14 46.58990 8.59636 32151 ft 462 kts 178°
2026-05-07 13:14 46.55782 8.60094 31391 ft 463 kts 178°
2026-05-07 13:14 46.52575 8.60551 30658 ft 463 kts 178°
2026-05-07 13:15 46.49362 8.61008 29833 ft 464 kts 178°
2026-05-07 13:15 46.46149 8.61464 28855 ft 465 kts 177°
2026-05-07 13:15 46.42922 8.61922 27823 ft 467 kts 177°
2026-05-07 13:15 46.39683 8.62380 26770 ft 469 kts 177°
2026-05-07 13:16 46.36439 8.62838 25996 ft 466 kts 177°
2026-05-07 13:16 46.33229 8.63293 25298 ft 461 kts 176°
2026-05-07 13:16 46.30049 8.63743 24650 ft 456 kts 176°
2026-05-07 13:16 46.26912 8.64185 24023 ft 450 kts 176°
2026-05-07 13:17 46.23809 8.64621 23369 ft 445 kts 176°
2026-05-07 13:17 46.20747 8.65052 22658 ft 440 kts 176°
2026-05-07 13:17 46.17726 8.65476 22081 ft 432 kts 176°
2026-05-07 13:17 46.14750 8.65892 21478 ft 427 kts 176°
2026-05-07 13:18 46.11803 8.66316 20849 ft 424 kts 174°
2026-05-07 13:18 46.08975 8.67414 20274 ft 423 kts 155°
2026-05-07 13:18 46.06440 8.69497 19747 ft 417 kts 152°
2026-05-07 13:18 46.03936 8.71545 19169 ft 422 kts 152°
2026-05-07 13:19 46.01320 8.73627 18526 ft 425 kts 153°
2026-05-07 13:19 45.98769 8.75630 17883 ft 422 kts 153°
2026-05-07 13:19 45.96203 8.77634 17348 ft 416 kts 153°
2026-05-07 13:19 45.93713 8.79576 17212 ft 400 kts 153°
2026-05-07 13:20 45.92080 8.80850 17084 ft 391 kts 153°
2026-05-07 13:20 45.88975 8.83272 16867 ft 374 kts 153°
2026-05-07 13:20 45.86722 8.85025 16713 ft 363 kts 153°
2026-05-07 13:20 45.85237 8.86184 16597 ft 356 kts 153°
2026-05-07 13:21 45.83094 8.87851 16462 ft 346 kts 153°
2026-05-07 13:21 45.80343 8.89986 16258 ft 333 kts 154°
2026-05-07 13:21 45.78973 8.91048 16082 ft 330 kts 154°
2026-05-07 13:21 45.76955 8.92610 15754 ft 329 kts 154°
2026-05-07 13:22 45.74949 8.94161 15442 ft 326 kts 154°
2026-05-07 13:22 45.72959 8.95700 15112 ft 324 kts 154°
2026-05-07 13:22 45.70980 8.97230 14790 ft 322 kts 154°
2026-05-07 13:22 45.69035 8.98733 14481 ft 321 kts 154°
2026-05-07 13:23 45.67076 9.00245 14166 ft 319 kts 154°
2026-05-07 13:23 45.65105 9.01764 13832 ft 318 kts 154°
2026-05-07 13:23 45.63162 9.03260 13479 ft 316 kts 153°
2026-05-07 13:23 45.61255 9.04726 13122 ft 315 kts 153°
2026-05-07 13:24 45.59333 9.06201 12789 ft 312 kts 154°
2026-05-07 13:24 45.57427 9.07663 12465 ft 310 kts 154°
2026-05-07 13:24 45.55537 9.09112 12260 ft 305 kts 154°
2026-05-07 13:24 45.53697 9.10522 11891 ft 298 kts 154°
2026-05-07 13:25 45.51863 9.11924 11356 ft 301 kts 154°
2026-05-07 13:25 45.49912 9.12905 11023 ft 296 kts 174°
2026-05-07 13:25 45.47878 9.13147 10802 ft 291 kts 178°
2026-05-07 13:25 45.45861 9.13336 10480 ft 290 kts 178°
2026-05-07 13:26 45.43852 9.13530 10160 ft 287 kts 178°
2026-05-07 13:26 45.41874 9.13732 9675 ft 285 kts 177°
2026-05-07 13:26 45.39897 9.13942 9137 ft 284 kts 177°
2026-05-07 13:26 45.37945 9.14155 8708 ft 279 kts 177°
2026-05-07 13:27 45.36017 9.14368 8255 ft 276 kts 177°
2026-05-07 13:27 45.34111 9.14581 7784 ft 274 kts 177°
2026-05-07 13:27 45.32217 9.14793 7327 ft 272 kts 176°
2026-05-07 13:27 45.30331 9.15004 6868 ft 271 kts 176°
2026-05-07 13:28 45.28462 9.15213 6434 ft 269 kts 176°
2026-05-07 13:28 45.26601 9.15421 5971 ft 267 kts 176°
2026-05-07 13:28 45.24756 9.15627 5565 ft 263 kts 176°
2026-05-07 13:28 45.22983 9.15826 5437 ft 249 kts 176°
2026-05-07 13:29 45.21277 9.16089 5068 ft 247 kts 166°
2026-05-07 13:29 45.19780 9.17245 4631 ft 248 kts 135°
2026-05-07 13:29 45.18942 9.19309 4406 ft 240 kts 103°
2026-05-07 13:29 45.18870 9.21651 4092 ft 237 kts 86°
2026-05-07 13:30 45.19229 9.23919 3645 ft 240 kts 61°
2026-05-07 13:30 45.20350 9.25623 3401 ft 237 kts 30°
2026-05-07 13:30 45.21764 9.26639 3422 ft 219 kts 24°
2026-05-07 13:30 45.23108 9.27511 3323 ft 208 kts 23°
2026-05-07 13:31 45.24415 9.28347 3213 ft 206 kts 23°
2026-05-07 13:31 45.25724 9.29181 3100 ft 206 kts 22°
2026-05-07 13:31 45.27106 9.29578 3004 ft 201 kts 354°
2026-05-07 13:31 45.28482 9.29387 3008 ft 198 kts 355°
2026-05-07 13:32 45.29855 9.29274 2962 ft 197 kts 355°
2026-05-07 13:32 45.31220 9.29138 2769 ft 196 kts 355°
2026-05-07 13:32 45.32557 9.28995 2509 ft 187 kts 354°
2026-05-07 13:32 45.33811 9.28858 2267 ft 176 kts 355°
2026-05-07 13:33 45.34988 9.28731 2067 ft 162 kts 354°
2026-05-07 13:33 45.36064 9.28615 1875 ft 148 kts 355°
2026-05-07 13:33 45.37119 9.28501 1653 ft 151 kts 354°
2026-05-07 13:33 45.38167 9.28388 1436 ft 148 kts 354°
2026-05-07 13:34 45.39186 9.28280 1222 ft 145 kts 354°
2026-05-07 13:34 45.41231 9.28055 848 ft 149 kts 354°
2026-05-07 13:34 45.42266 9.27948 621 ft 148 kts 354°
2026-05-07 13:35 45.43284 9.27837 418 ft 147 kts 354°
2026-05-07 13:35 45.44254 9.27736 358 ft 121 kts 351°
2026-05-07 13:35 45.44871 9.27662 363 ft 57 kts 356°
2026-05-07 13:35 45.45053 9.27644 361 ft 8 kts 359°
2026-05-07 13:36 45.45205 9.27630 357 ft 35 kts 359°
2026-05-07 13:36 45.45388 9.27716 360 ft 19 kts 26°
2026-05-07 13:36 45.45464 9.27797 359 ft 10 kts 36°
2026-05-07 13:36 45.45530 9.27815 359 ft 10 kts
2026-05-07 13:37 45.45598 9.27818 359 ft 10 kts
2026-05-07 13:37 45.45673 9.27816 359 ft 12 kts
2026-05-07 13:37 45.45770 9.27817 363 ft 16 kts
2026-05-07 13:37 45.45880 9.27820 363 ft 15 kts 19°
2026-05-07 13:38 45.45914 9.27895 362 ft 7 kts 37°
2026-05-07 13:38 45.45957 9.27904 359 ft 6 kts
2026-05-07 13:38 45.45970 9.27904 359 ft 1 kts 358°
2026-05-07 13:38 45.45971 9.27904 359 ft 0 kts 358°